Jefferson City, MO

8:21 AM CDT on September 23, 2017 (GMT -0500)
Jefferson City Memorial

Weather History for KJEF - December, 2013

Change the Weather History Date:

Monday, December 23, 2013

  Actual Average Record
Temperature  
Mean Temperature 15 °F -  
Max Temperature 21 °F 39 °F 74 °F (1933)
Min Temperature 9 °F 20 °F -21 °F (1989)
Degree Days  
Heating Degree Days 50    
Moisture  
Dew Point 9 °F    
Average Humidity 76    
Maximum Humidity 81    
Minimum Humidity 70    
Precipitation  
Precipitation 0.00 in - - ()
Sea Level Pressure  
Sea Level Pressure 30.54 in    
Wind  
Wind Speed 9 mph (WNW)    
Max Wind Speed 14 mph    
Max Gust Speed 18 mph    
Visibility 10 miles    
Events Snow    
Averages and records for this station are not official NWS values.
T = Trace of Precipitation, MM = Missing Value Source: NWS Daily Summary

Daily Weather History Graph

Daily Weather History Graph

Search for Another Location

Airport or City:

Trip Planner

Search our weather history database for the weather conditions in past years. The results will help you decide how hot, cold, wet, or windy it might be!

Date:

Astronomy

Dec. 23, 2013 Rise Set
Actual Time 7:23 AM CST 4:52 PM CST
Civil Twilight 6:53 AM CST 5:21 PM CST
Nautical Twilight 6:20 AM CST 5:55 PM CST
Astronomical Twilight 5:48 AM CST 6:27 PM CST
Moon 10:58 PM CST 10:53 AM CST
Length of Visible Light 10h 27m
Length of Day
9h 28m
Waning Gibbous, 68% of the Moon is Illuminated
Dec 23
Waning Gibbous
Dec 25
Last Quarter
Jan 1
New
Jan 7
First Quarter
Jan 15
Full

Hourly Weather History & Observations

Time (CST) Temp. Windchill Dew Point Humidity Pressure Visibility Wind Dir Wind Speed Gust Speed Precip Events Conditions
12:53 AM 21.0 °F 9.9 °F 14.0 °F 74% 30.36 in 10.0 mi NW 10.4 mph 18.4 mph N/A   Overcast
1:37 AM 19.4 °F 9.5 °F 12.2 °F 74% 30.38 in 10.0 mi WNW 8.1 mph - N/A   Partly Cloudy
1:53 AM 18.0 °F 8.7 °F 12.9 °F 81% 30.38 in 10.0 mi WNW 6.9 mph - N/A   Clear
2:53 AM 17.1 °F 7.6 °F 12.0 °F 81% 30.39 in 10.0 mi West 6.9 mph - N/A   Clear
3:53 AM 16.0 °F 6.3 °F 10.9 °F 81% 30.41 in 10.0 mi West 6.9 mph - N/A   Clear
4:53 AM 16.0 °F 5.3 °F 10.9 °F 81% 30.44 in 10.0 mi WNW 8.1 mph - N/A   Clear
5:53 AM 15.1 °F 6.4 °F 10.0 °F 80% 30.45 in 10.0 mi WNW 5.8 mph - N/A   Clear
6:53 AM 15.1 °F 3.3 °F 9.0 °F 77% 30.48 in 10.0 mi NW 9.2 mph - N/A   Partly Cloudy
7:53 AM 14.0 °F 2.0 °F 8.1 °F 77% 30.51 in 10.0 mi NW 9.2 mph - N/A   Clear
8:53 AM 14.0 °F 2.9 °F 9.0 °F 80% 30.53 in 10.0 mi NW 8.1 mph - N/A   Partly Cloudy
9:53 AM 15.1 °F 4.2 °F 9.0 °F 77% 30.57 in 10.0 mi NW 8.1 mph - N/A   Partly Cloudy
10:53 AM 17.1 °F 5.0 °F 10.9 °F 77% 30.58 in 10.0 mi NW 10.4 mph 18.4 mph N/A   Mostly Cloudy
11:53 AM 18.0 °F 6.1 °F 10.9 °F 74% 30.56 in 10.0 mi NW 10.4 mph - N/A   Overcast
12:17 PM 17.6 °F 4.3 °F 10.4 °F 73% 30.56 in 10.0 mi WNW 12.7 mph - N/A   Overcast
12:53 PM 18.0 °F 7.7 °F 10.9 °F 74% 30.56 in 9.0 mi NW 8.1 mph - 0.00 in Snow Light Snow
1:53 PM 18.0 °F 4.2 °F 10.9 °F 74% 30.55 in 9.0 mi NW 13.8 mph - 0.00 in   Overcast
2:46 PM 17.6 °F 5.0 °F 10.4 °F 73% 30.55 in 5.0 mi WNW 11.5 mph - 0.00 in Snow Light Snow
2:53 PM 18.0 °F 6.9 °F 10.9 °F 74% 30.55 in 4.0 mi WNW 9.2 mph - 0.00 in Snow Light Snow
3:53 PM 17.1 °F 4.3 °F 10.9 °F 77% 30.57 in 7.0 mi WNW 11.5 mph - 0.00 in Snow Light Snow
4:53 PM 16.0 °F 2.9 °F 10.0 °F 77% 30.58 in 10.0 mi WNW 11.5 mph - 0.00 in   Overcast
5:53 PM 14.0 °F 1.2 °F 8.1 °F 77% 30.60 in 10.0 mi WNW 10.4 mph - 0.00 in   Mostly Cloudy
6:53 PM 15.1 °F 2.5 °F 7.0 °F 70% 30.61 in 10.0 mi NW 10.4 mph - 0.00 in Snow Light Snow
7:53 PM 12.9 °F -0.9 °F 6.1 °F 74% 30.62 in 10.0 mi WNW 11.5 mph - 0.00 in   Mostly Cloudy
8:05 PM 12.2 °F -1.0 °F 5.0 °F 73% 30.62 in 10.0 mi NW 10.4 mph - N/A   Scattered Clouds
8:23 PM 12.2 °F -0.2 °F 5.0 °F 73% 30.62 in 10.0 mi WNW 9.2 mph - N/A   Mostly Cloudy
8:45 PM 10.4 °F -2.4 °F 3.2 °F 73% 30.62 in 10.0 mi WNW 9.2 mph - N/A   Partly Cloudy
8:53 PM 10.9 °F -0.8 °F 3.9 °F 73% 30.63 in 10.0 mi WNW 8.1 mph - N/A   Partly Cloudy
9:53 PM 10.0 °F -1.9 °F 3.9 °F 76% 30.64 in 10.0 mi WNW 8.1 mph - N/A   Clear
10:53 PM 9.0 °F -0.9 °F 3.0 °F 77% 30.64 in 10.0 mi WNW 5.8 mph - N/A   Clear
11:53 PM 9.0 °F 0.6 °F 1.9 °F 73% 30.64 in 10.0 mi NW 4.6 mph - N/A   Clear